EZY3316 EGPH-BIKF

Flight info

Callsign EZY3316
Flight time N/A
Altitude 35000
Route GRICE P600 ASNUD DCT NESDI DCT RUGID DCT ATSIX/M077F360 DCT 6100N01234W DCT ALDAN DCT ASRUN ASRUN4N
Aircraft A320/M-SDE3FGHIRWY/LB1

Departure

Time 2026-05-06 22:29
Airport Edinburgh Airport (EGPH)

Arrival

Time N/A
Airport Keflavik International Airport (BIKF)
Time Latitude Longitude Altitude Speed Heading
2026-05-06 22:04 55.94882 -3.36549 116 ft 0 kts 148°
2026-05-06 22:17 55.94886 -3.36554 116 ft 3 kts 148°
2026-05-06 22:17 55.94906 -3.36575 115 ft 2 kts 148°
2026-05-06 22:18 55.94928 -3.36593 112 ft 4 kts 179°
2026-05-06 22:18 55.94950 -3.36581 116 ft 4 kts 230°
2026-05-06 22:18 55.94956 -3.36567 116 ft 0 kts 238°
2026-05-06 22:25 55.94945 -3.36601 113 ft 8 kts 239°
2026-05-06 22:25 55.94904 -3.36724 112 ft 11 kts 240°
2026-05-06 22:25 55.94922 -3.36822 116 ft 8 kts 343°
2026-05-06 22:25 55.94965 -3.36776 114 ft 7 kts 49°
2026-05-06 22:26 55.94988 -3.36712 114 ft 7 kts 59°
2026-05-06 22:26 55.95028 -3.36595 113 ft 15 kts 58°
2026-05-06 22:26 55.95094 -3.36398 112 ft 22 kts 60°
2026-05-06 22:26 55.95184 -3.36129 111 ft 28 kts 59°
2026-05-06 22:27 55.95296 -3.35801 115 ft 34 kts 59°
2026-05-06 22:27 55.95401 -3.35496 113 ft 15 kts 57°
2026-05-06 22:27 55.95411 -3.35470 113 ft 1 kts 57°
2026-05-06 22:27 55.95413 -3.35462 116 ft 0 kts 57°
2026-05-06 22:28 55.95439 -3.35414 115 ft 13 kts 32°
2026-05-06 22:28 55.95540 -3.35480 113 ft 12 kts 326°
2026-05-06 22:28 55.95556 -3.35600 113 ft 12 kts 237°
2026-05-06 22:28 55.95462 -3.35903 111 ft 53 kts 242°
2026-05-06 22:29 55.95148 -3.36814 114 ft 116 kts 238°
2026-05-06 22:29 55.94638 -3.38314 114 ft 164 kts 238°
2026-05-06 22:29 55.94068 -3.40007 856 ft 146 kts 238°
2026-05-06 22:29 55.93554 -3.41525 1579 ft 146 kts 235°
2026-05-06 22:30 55.92975 -3.43167 1912 ft 167 kts 235°
2026-05-06 22:30 55.92315 -3.45038 2186 ft 189 kts 235°
2026-05-06 22:30 55.91575 -3.47146 2432 ft 210 kts 235°
2026-05-06 22:30 55.90767 -3.49464 2817 ft 229 kts 235°
2026-05-06 22:31 55.90060 -3.52156 3274 ft 254 kts 258°
2026-05-06 22:31 55.90314 -3.55317 4003 ft 269 kts 295°
2026-05-06 22:31 55.91589 -3.57754 4868 ft 276 kts 329°
2026-05-06 22:31 55.93447 -3.58545 5740 ft 280 kts
2026-05-06 22:32 55.95272 -3.57501 6608 ft 282 kts 28°
2026-05-06 22:32 55.96929 -3.55604 7452 ft 285 kts 36°
2026-05-06 22:32 55.98509 -3.53436 8265 ft 288 kts 35°
2026-05-06 22:32 56.00294 -3.51839 9013 ft 290 kts 12°
2026-05-06 22:33 56.02289 -3.51781 9722 ft 290 kts 346°
2026-05-06 22:33 56.04271 -3.52617 10337 ft 299 kts 343°
2026-05-06 22:33 56.06245 -3.54096 10550 ft 318 kts 324°
2026-05-06 22:33 56.07868 -3.56854 10929 ft 327 kts 302°
2026-05-06 22:34 56.09119 -3.60300 11563 ft 333 kts 306°
2026-05-06 22:34 56.10235 -3.62205 11986 ft 340 kts 324°
2026-05-06 22:34 56.12460 -3.63717 12639 ft 349 kts 352°
2026-05-06 22:34 56.14882 -3.63258 13269 ft 357 kts 19°
2026-05-06 22:35 56.17014 -3.60936 13895 ft 363 kts 39°
2026-05-06 22:35 56.19049 -3.58237 14477 ft 365 kts 24°
2026-05-06 22:35 56.21475 -3.57076 15029 ft 362 kts 358°
2026-05-06 22:35 56.24619 -3.58617 15800 ft 354 kts 323°
2026-05-06 22:36 56.25858 -3.60576 16187 ft 351 kts 308°
2026-05-06 22:36 56.27469 -3.63890 16783 ft 354 kts 313°
2026-05-06 22:36 56.29535 -3.66355 17348 ft 365 kts 336°
2026-05-06 22:36 56.32063 -3.67008 17897 ft 377 kts
2026-05-06 22:37 56.34595 -3.65648 18418 ft 388 kts 27°
2026-05-06 22:37 56.36653 -3.62453 18917 ft 398 kts 52°
2026-05-06 22:37 56.37865 -3.57942 19404 ft 405 kts 74°
2026-05-06 22:37 56.38590 -3.53020 19862 ft 408 kts 68°
2026-05-06 22:38 56.40013 -3.48725 20305 ft 405 kts 45°
2026-05-06 22:38 56.42109 -3.45333 20738 ft 404 kts 33°
2026-05-06 22:38 56.44433 -3.42448 21195 ft 405 kts 29°
2026-05-06 22:38 56.46808 -3.39688 21654 ft 408 kts 29°
2026-05-06 22:39 56.49171 -3.36783 22078 ft 412 kts 31°
2026-05-06 22:39 56.51483 -3.33649 22503 ft 416 kts 34°
2026-05-06 22:39 56.53741 -3.30309 22918 ft 420 kts 36°
2026-05-06 22:39 56.55958 -3.26834 23319 ft 423 kts 37°
2026-05-06 22:40 56.58172 -3.23276 23722 ft 426 kts 37°
2026-05-06 22:40 56.60370 -3.19744 24082 ft 429 kts 37°
2026-05-06 22:40 56.62800 -3.16656 24434 ft 423 kts 21°
2026-05-06 22:40 56.65538 -3.14955 24809 ft 414 kts
2026-05-06 22:41 56.71091 -3.15706 25549 ft 396 kts 335°
2026-05-06 22:41 56.73534 -3.17929 25911 ft 390 kts 321°
2026-05-06 22:41 56.75565 -3.21137 26264 ft 385 kts 308°
2026-05-06 22:42 56.77186 -3.25005 26618 ft 384 kts 303°
2026-05-06 22:42 56.78758 -3.28957 26965 ft 386 kts 303°
2026-05-06 22:42 56.80335 -3.32940 27320 ft 387 kts 303°
2026-05-06 22:42 56.81911 -3.36930 27663 ft 388 kts 303°
2026-05-06 22:43 56.83497 -3.40951 28011 ft 390 kts 303°
2026-05-06 22:43 56.85083 -3.44979 28367 ft 391 kts 304°
2026-05-06 22:43 56.86669 -3.49010 28703 ft 392 kts 304°
2026-05-06 22:43 56.88242 -3.53009 29008 ft 393 kts 304°
2026-05-06 22:44 56.89840 -3.57069 29305 ft 394 kts 304°
2026-05-06 22:44 56.91440 -3.61143 29612 ft 395 kts 304°
2026-05-06 22:44 56.93044 -3.65239 29906 ft 395 kts 304°
2026-05-06 22:44 56.94641 -3.69331 30181 ft 396 kts 304°
2026-05-06 22:45 56.96241 -3.73439 30439 ft 397 kts 304°
2026-05-06 22:45 56.97847 -3.77571 30689 ft 398 kts 304°
2026-05-06 22:45 56.99453 -3.81703 30939 ft 399 kts 304°
2026-05-06 22:45 57.01063 -3.85847 31279 ft 397 kts 304°
2026-05-06 22:46 57.02661 -3.89967 31668 ft 395 kts 304°
2026-05-06 22:46 57.04251 -3.94078 32035 ft 393 kts 304°
2026-05-06 22:46 57.05809 -3.98112 32379 ft 391 kts 304°
2026-05-06 22:46 57.07379 -4.02181 32737 ft 389 kts 304°
2026-05-06 22:47 57.08942 -4.06251 33065 ft 388 kts 304°
2026-05-06 22:47 57.10489 -4.10297 33438 ft 385 kts 304°
2026-05-06 22:47 57.12026 -4.14313 33746 ft 383 kts 304°
2026-05-06 22:47 57.13508 -4.18382 34079 ft 381 kts 302°
2026-05-06 22:48 57.14914 -4.22507 34399 ft 380 kts 301°
2026-05-06 22:48 57.16279 -4.26678 34636 ft 381 kts 300°
2026-05-06 22:48 57.17637 -4.30893 34809 ft 382 kts 300°
2026-05-06 22:48 57.19000 -4.35114 35013 ft 384 kts 300°
2026-05-06 22:49 57.20376 -4.39339 35236 ft 384 kts 300°
2026-05-06 22:49 57.21760 -4.43557 35434 ft 385 kts 300°
2026-05-06 22:49 57.23154 -4.47776 35598 ft 386 kts 301°
2026-05-06 22:49 57.24559 -4.52017 35756 ft 387 kts 300°
2026-05-06 22:50 57.25964 -4.56272 35924 ft 388 kts 300°
2026-05-06 22:50 57.28750 -4.64743 35970 ft 388 kts 300°
2026-05-06 22:51 57.31541 -4.73287 35967 ft 388 kts 300°
2026-05-06 22:51 57.34316 -4.81834 35968 ft 388 kts 300°
2026-05-06 22:52 57.37261 -4.90211 35972 ft 390 kts 309°
2026-05-06 22:52 57.41175 -4.97239 35972 ft 391 kts 314°
2026-05-06 22:53 57.45153 -5.04151 35968 ft 392 kts 314°
2026-05-06 22:53 57.49122 -5.11082 35967 ft 392 kts 313°
2026-05-06 22:54 57.53085 -5.18050 35959 ft 392 kts 313°
2026-05-06 22:54 57.57021 -5.24985 35961 ft 392 kts 313°
2026-05-06 22:55 57.61014 -5.32028 35961 ft 392 kts 313°
2026-05-06 22:55 57.64946 -5.38975 35958 ft 392 kts 313°
2026-05-06 22:56 57.68909 -5.46006 35962 ft 392 kts 313°
2026-05-06 22:56 57.72867 -5.53054 35959 ft 393 kts 312°
2026-05-06 22:57 57.76817 -5.60109 35955 ft 392 kts 312°
2026-05-06 22:57 57.80761 -5.67174 35953 ft 392 kts 312°
2026-05-06 22:58 57.84700 -5.74256 35950 ft 391 kts 312°
2026-05-06 22:58 57.88625 -5.81338 35949 ft 391 kts 312°
2026-05-06 22:59 57.92550 -5.88430 35946 ft 391 kts 311°
2026-05-06 22:59 57.96446 -5.95508 35944 ft 392 kts 311°
2026-05-06 23:00 58.00362 -6.02633 35942 ft 391 kts 311°
2026-05-06 23:00 58.04274 -6.09777 35938 ft 391 kts 311°
2026-05-06 23:01 58.08173 -6.16939 35936 ft 391 kts 311°
2026-05-06 23:01 58.12080 -6.24113 35936 ft 391 kts 311°
2026-05-06 23:02 58.15978 -6.31296 35936 ft 391 kts 311°
2026-05-06 23:02 58.19866 -6.38498 35934 ft 391 kts 311°
2026-05-06 23:03 58.23759 -6.45720 35939 ft 391 kts 311°
2026-05-06 23:03 58.27641 -6.52947 35935 ft 392 kts 311°
2026-05-06 23:04 58.31531 -6.60212 35932 ft 392 kts 311°
2026-05-06 23:04 58.35415 -6.67497 35932 ft 392 kts 311°
2026-05-06 23:05 58.39267 -6.74760 35930 ft 392 kts 311°
2026-05-06 23:05 58.43142 -6.82075 35935 ft 392 kts 311°
2026-05-06 23:06 58.47019 -6.89414 35926 ft 392 kts 310°
2026-05-06 23:06 58.50899 -6.96760 35927 ft 393 kts 310°
2026-05-06 23:07 58.54780 -7.04152 35928 ft 393 kts 310°
2026-05-06 23:07 58.58658 -7.11566 35926 ft 393 kts 310°
2026-05-06 23:08 58.62531 -7.19000 35929 ft 394 kts 310°
2026-05-06 23:08 58.66378 -7.26408 35935 ft 394 kts 310°
2026-05-06 23:09 58.70248 -7.33881 35935 ft 394 kts 310°
2026-05-06 23:09 58.74112 -7.41361 35933 ft 394 kts 310°
2026-05-06 23:10 58.77973 -7.48860 35934 ft 394 kts 310°
2026-05-06 23:10 58.81830 -7.56386 35933 ft 394 kts 310°
2026-05-06 23:11 58.85683 -7.63920 35933 ft 394 kts 310°
2026-05-06 23:11 58.89529 -7.71471 35936 ft 394 kts 310°
2026-05-06 23:12 58.93373 -7.79053 35940 ft 395 kts 310°
2026-05-06 23:12 58.97222 -7.86664 35942 ft 395 kts 310°
2026-05-06 23:13 59.01064 -7.94283 35949 ft 395 kts 310°
2026-05-06 23:13 59.04913 -8.01944 35953 ft 396 kts 309°
2026-05-06 23:14 59.08746 -8.09607 35953 ft 396 kts 309°